sat.trackr.live / text

‹ back to catalog

COSMOS 2497 (RODNIK-S *)

NORAD 39762 · 2014-028B

PAYLOAD ACTIVE UNKNOWN

§ Identity

Operator
Country
CIS
Launch date
2014-05-23
Launch site
PLMSC
Launch vehicle
Mass (kg)
RCS (m²)
1.72

External: N2YO · Heavens-Above · Gunter

§ Orbital elements

Epoch: 2026-09-20T03:28:40.638720Z

Period
115.86 min
Inclination
82.4494°
Eccentricity
0.0020015
Mean motion
12.42897725 rev/d
Perigee alt
1,478.6 km
Apogee alt
1,510.1 km
Semi-major
7,872.5 km
B*
5.3306e-4
RAAN
50.9570°
Arg perigee
225.9138°
Mean anomaly
134.0294°
Rev number
55,931

§ Raw data

COSMOS 2497 (RODNIK-S *)1 39762U 14028B   26263.14491480  .00000084  00000+0  53306-3 0  99932 39762  82.4494  50.9570 0020015 225.9138 134.0294 12.42897725559317

JSON: /api/v1/satellites/39762 · /tle

For live sub-satellite position, see the globe view (requires WebGL).

§ Visibility from observer

Set your observer location to see the next 7 days of passes ≥ 10°. The values pass through the URL so the page stays shareable.

No JS? Fill the form by hand. The geolocation button needs JavaScript.

§ Radio — SatNOGS DB

ModeDescriptionDownlinkUplink
FM UHF Unknown 388.187 MHz
FM UHF Unknown 388.687 MHz

2 transmitters · refreshed weekly from db.satnogs.org